Location: Schommer Observatory
(40.5200°N, 74.4500°W)
Time: 15:07:41
(UTC-04:00)

Hubble Space Telescope - Pass Details

Date: 07 October 2017
Orbit: 537 x 541 km, 28.5° (Epoch: 22 October)

Event Time Altitude Azimuth Distance (km) Brightness Sun altitude
Exits shadow 05:36:41 14° 203° (SSW) 1,575 2.9 -16.7°
Maximum altitude 05:37:45 15° 185° (S) 1,514 2.9 -16.5°
Drops below altitude 10° 05:40:04 10° 151° (SSE) 1,788 3.7 -16.1°
Sets 05:43:10 0° 127° (SE) 2,679 5.1 -15.5°
